Voltar ao catálogo

COSMOS 1831

AtivoMilitarPO
NORAD 17586·PAYLOAD·🇷🇺 Russia

Lançado Mar 13, 1987 de Plesetsk Cosmodrome

Loading…

Próximas Passagens (próximas 24 horas)

TLE

AtualizadoSource: Space-Track

Época: Sep 14, 2026, 13:42 UTC

1 17586U 87026E   26257.57142751  .00000030  00000-0  10293-3 0  9995
2 17586  82.5566 113.2583 0014495 283.0925 104.1075 12.65550151824740

Acompanhe COSMOS 1831 em tempo real com AllMySat

Download on the App Store